This is the latest recevied weather packets stored in our database for station/object K2ATL. If no packets are shown the sender has not sent any weather packets the latest 10 day(s).
| Time | Temp. | Humidity | Pressure | Rain* | Wind** | Luminosity | Snow |
|---|---|---|---|---|---|---|---|
| 1777542967 | 12.78° C | 93% | 1094.8 hPa | 1.27 mm | - | 0 W/m² | - |
| 1777542664 | 12.78° C | 94% | 1095.4 hPa | 1.27 mm | - | 0 W/m² | - |
| 1777542360 | 12.78° C | 92% | 1095.9 hPa | 0 mm | - | 0 W/m² | - |
| 1777542057 | 12.78° C | 93% | 1095.8 hPa | 1.78 mm | - | 0 W/m² | - |
| 1777541754 | 12.78° C | 94% | 1096.1 hPa | 1.78 mm | - | 0 W/m² | - |
| 1777541451 | 12.78° C | 94% | 1096.2 hPa | 0 mm | - | 0 W/m² | - |
| 1777541147 | 12.78° C | 93% | 1096.2 hPa | 1.27 mm | - | 0 W/m² | - |
| 1777540844 | 12.78° C | 92% | 1095.9 hPa | 3.05 mm | - | 0 W/m² | - |
| 1777540542 | 12.78° C | 93% | 1095.7 hPa | 1.78 mm | - | 0 W/m² | - |
| 1777540238 | 12.22° C | 94% | 1096 hPa | 1.27 mm | - | 0 W/m² | - |
| 1777539933 | 12.22° C | 97% | 1096.3 hPa | 3.05 mm | - | 0 W/m² | - |
| 1777539630 | 12.22° C | 97% | 1096.3 hPa | 1.27 mm | - | 0 W/m² | - |
| 1777539326 | 12.22° C | 97% | 1096.3 hPa | 1.27 mm | - | 0 W/m² | - |
| 1777539023 | 12.22° C | 98% | 1096.3 hPa | 1.78 mm | - | 0 W/m² | - |
| 1777538719 | 12.22° C | 98% | 1096.2 hPa | 1.78 mm | - | 0 W/m² | - |
| 1777538414 | 12.22° C | 98% | 1096.6 hPa | 1.27 mm | - | 0 W/m² | - |
| 1777538110 | 12.78° C | 98% | 1096.5 hPa | 3.05 mm | - | 0 W/m² | - |
| 1777537805 | 12.78° C | 98% | 1096.4 hPa | 1.78 mm | - | 0 W/m² | - |
| 1777537503 | 12.78° C | 98% | 1096.5 hPa | 3.05 mm | - | 0 W/m² | - |
| 1777537198 | 12.78° C | 99% | 1096.4 hPa | 4.32 mm | - | 0 W/m² | - |
| 1777536894 | 12.78° C | 99% | 1096.3 hPa | 6.1 mm | - | 0 W/m² | - |
| 1777536592 | 12.78° C | 98% | 1096.5 hPa | 6.1 mm | - | 0 W/m² | - |
| 1777536288 | 12.78° C | 98% | 1096.6 hPa | 4.32 mm | - | 0 W/m² | - |
| 1777535984 | 12.78° C | 98% | 1097.1 hPa | 3.05 mm | - | 0 W/m² | - |
| 1777535680 | 12.78° C | 98% | 1096.8 hPa | 3.05 mm | - | 0 W/m² | - |
* Rain latest hour (hover to see other rain measurements)
** Current wind speed in m/s (hover to see current wind gust speed)